2023/01/14 00:00:00,38.2, 3.8
2023/01/14 00:10:00,38.2, 3.6
2023/01/14 00:20:00,38.2, 3.5
2023/01/14 00:30:00,38.0, 3.5
2023/01/14 00:40:00,38.1, 3.2
2023/01/14 00:50:00,37.9, 3.5
2023/01/14 01:00:00,37.9, 3.4
2023/01/14 01:10:00,37.8, 3.5
2023/01/14 01:20:00,37.7, 3.4
2023/01/14 01:30:00,37.7, 3.4
2023/01/14 01:40:00,37.5, 3.5
2023/01/14 01:50:00,37.6, 3.4
2023/01/14 02:00:00,38.0, 3.1
2023/01/14 02:10:00,37.8, 3.2
2023/01/14 02:20:00,37.7, 3.5
2023/01/14 02:30:00,37.6, 3.2
2023/01/14 02:40:00,37.6, 3.6
2023/01/14 02:50:00,37.6, 3.3
2023/01/14 03:00:00,37.7, 3.7
2023/01/14 03:10:00,37.6, 3.6
2023/01/14 03:20:00,37.5, 3.6
2023/01/14 03:30:00,37.5, 3.8
2023/01/14 03:40:00,37.4, 3.6
2023/01/14 03:50:00,37.3, 3.6
2023/01/14 04:00:00,37.5, 3.5
2023/01/14 04:10:00,37.4, 3.6
2023/01/14 04:20:00,36.4, 3.6
2023/01/14 04:30:00,36.3, 3.6
2023/01/14 04:40:00,36.1, 3.5
2023/01/14 04:50:00,36.0, 3.6
2023/01/14 05:00:00,36.0, 3.5
2023/01/14 05:10:00,36.0, 3.2
2023/01/14 05:20:00,36.1, 3.5
2023/01/14 05:30:00,36.1, 3.9
2023/01/14 05:40:00,36.1, 3.4
2023/01/14 05:50:00,36.1, 3.6
2023/01/14 06:00:00,36.1, 3.5
2023/01/14 06:10:00,36.1, 3.6
2023/01/14 06:20:00,35.9, 3.5
2023/01/14 06:30:00,35.9, 3.3
2023/01/14 06:40:00,35.8, 4.1
2023/01/14 06:50:00,35.6, 3.5
2023/01/14 07:00:00,35.6, 3.6
2023/01/14 07:10:00,35.4, 3.3
2023/01/14 07:20:00,35.4, 3.6
2023/01/14 07:30:00,35.4, 3.6
2023/01/14 07:40:00,35.3, 3.9
2023/01/14 07:50:00,35.1, 4.1
2023/01/14 08:00:00,34.8, 4.2
2023/01/14 08:10:00,34.5, 4.3
2023/01/14 08:20:00,34.4, 4.5
2023/01/14 08:30:00,34.4, 4.9
2023/01/14 08:40:00,34.3, 4.7
2023/01/14 08:50:00,34.3, 4.7
2023/01/14 09:00:00,34.4, 4.4
2023/01/14 09:10:00,34.4, 3.5
2023/01/14 09:20:00,34.3, 3.9
2023/01/14 09:30:00,34.1, 4.0
2023/01/14 09:40:00,33.9, 4.2
2023/01/14 09:50:00,34.0, 4.6
2023/01/14 10:00:00,34.0, 4.5
2023/01/14 10:10:00,34.2, 4.9
2023/01/14 10:20:00,34.1, 4.9
2023/01/14 10:30:00,34.1, 5.0
2023/01/14 10:40:00,34.0, 4.8
2023/01/14 10:50:00,34.1, 4.8
2023/01/14 11:00:00,33.8, 4.4
2023/01/14 11:10:00,33.5, 4.5
2023/01/14 11:20:00,33.4, 4.4
2023/01/14 11:30:00,33.4, 4.6
2023/01/14 11:40:00,33.4, 4.7
2023/01/14 11:50:00,33.2, 4.9
2023/01/14 12:00:00,33.2, 5.1
2023/01/14 12:10:00,33.3, 4.8
2023/01/14 12:20:00,32.9, 5.0
2023/01/14 12:30:00,32.6, 5.1
2023/01/14 12:40:00,32.5, 5.0
2023/01/14 12:50:00,32.5, 5.0
2023/01/14 13:00:00,32.4, 4.6
2023/01/14 13:10:00,32.4, 4.5
2023/01/14 13:20:00,32.4, 4.2
2023/01/14 13:30:00,32.5, 4.3
2023/01/14 13:40:00,32.2, 4.2
2023/01/14 13:50:00,31.8, 4.2
2023/01/14 14:00:00,31.6, 4.6
2023/01/14 14:10:00,31.5, 3.9
2023/01/14 14:20:00,31.5, 4.3
2023/01/14 14:30:00,31.5, 4.2
2023/01/14 14:40:00,31.4, 4.1
2023/01/14 14:50:00,31.5, 4.0
2023/01/14 15:00:00,31.4, 3.9
2023/01/14 15:10:00,31.5, 3.9
2023/01/14 15:20:00,31.5, 3.7
2023/01/14 15:30:00,31.4, 3.8
2023/01/14 15:40:00,31.4, 3.7
2023/01/14 15:50:00,31.4, 4.0
2023/01/14 16:00:00,31.4, 3.8
2023/01/14 16:10:00,31.3, 3.8
2023/01/14 16:20:00,31.3, 3.6
2023/01/14 16:30:00,31.2, 3.7
2023/01/14 16:40:00,31.2, 3.8
2023/01/14 16:50:00,31.2, 3.5
2023/01/14 17:00:00,31.0, 3.5
2023/01/14 17:10:00,31.0, 3.3
2023/01/14 17:20:00,30.9, 3.4
2023/01/14 17:30:00,30.9, 3.0
2023/01/14 17:40:00,31.0, 3.4
2023/01/14 17:50:00,30.8, 3.1
2023/01/14 18:00:00,30.7, 3.2
2023/01/14 18:10:00,30.6, 3.1
2023/01/14 18:20:00,30.6, 3.2
2023/01/14 18:30:00,30.6, 3.1
2023/01/14 18:40:00,30.5, 3.2
2023/01/14 18:50:00,30.5, 3.1
2023/01/14 19:00:00,30.4, 3.2
2023/01/14 19:10:00,30.3, 3.5
2023/01/14 19:20:00,30.3, 3.2
2023/01/14 19:30:00,30.4, 3.0
2023/01/14 19:40:00,30.4, 2.8
2023/01/14 19:50:00,30.4, 2.9
2023/01/14 20:00:00,30.3, 3.1
2023/01/14 20:10:00,30.3, 3.2
2023/01/14 20:20:00,30.5, 3.1
2023/01/14 20:30:00,30.5, 3.2
2023/01/14 20:40:00,30.5, 3.3
2023/01/14 20:50:00,30.5, 2.9
2023/01/14 21:00:00,30.5, 2.9
2023/01/14 21:10:00,30.6, 2.8
2023/01/14 21:20:00,30.8, 3.2
2023/01/14 21:30:00,30.8, 3.2
2023/01/14 21:40:00,30.6, 2.9
2023/01/14 21:50:00,30.5, 3.4
2023/01/14 22:00:00,30.5, 3.4
2023/01/14 22:10:00,30.5, 3.5
2023/01/14 22:20:00,30.3, 3.7
2023/01/14 22:30:00,30.4, 3.3
2023/01/14 22:40:00,30.5, 3.6
2023/01/14 22:50:00,30.2, 3.1
2023/01/14 23:00:00,30.1, 3.4
2023/01/14 23:10:00,30.0, 3.6
2023/01/14 23:20:00,30.2, 3.6
2023/01/14 23:30:00,30.3, 3.1
2023/01/14 23:40:00,30.2, 2.8
2023/01/14 23:50:00,29.8, 3.0
